Location: Unspecified
(41.5000°N, 0.0000°E)
Time: 02:30:26
(UTC+00:00)

Vanguard 1 - Pass Details

Date: 27 June 2019
Orbit: 653 x 3830 km, 34.3° (Epoch: 15 July)

Event Time Altitude Azimuth Distance (km) Brightness Sun altitude
Exits shadow 02:43:59 - 251° (WSW) 7,405 14.0 -15.2°
Reaches altitude 10° 02:47:34 10° 249° (WSW) 6,630 13.8 -14.8°
Maximum altitude 03:07:14 63° 175° (S) 2,715 12.1 -12.4°
Drops below altitude 10° 03:18:14 10° 98° (E) 3,943 13.7 -11.0°
Sets 03:20:45 0° 94° (E) 4,621 14.2 -10.6°
